Weather History for KBFI - July, 2013

Change the Weather History Date:

Thursday, July 11, 2013

  Actual Average Record
Temperature  
Mean Temperature 64 °F -  
Max Temperature 72 °F 72 °F 95 °F (1951)
Min Temperature 57 °F 55 °F 49 °F (1960)
Degree Days  
Heating Degree Days 1    
Growing Degree Days 14 (Base 50)    
Moisture  
Dew Point 46 °F    
Average Humidity 55    
Maximum Humidity 67    
Minimum Humidity 38    
Precipitation  
Precipitation 0.00 in - - ()
Sea Level Pressure  
Sea Level Pressure 30.05 in    
Wind  
Wind Speed 5 mph (ESE)    
Max Wind Speed 12 mph    
Max Gust Speed -    
Visibility 10 miles    
Events      
Averages and records for this station are not official NWS values.
T = Trace of Precipitation, MM = Missing Value Source: NWS Daily Summary

Daily Weather History Graph

Daily Weather History Graph

Search for Another Location

Airport or City:

Trip Planner

Search our weather history database for the weather conditions in past years. The results will help you decide how hot, cold, wet, or windy it might be!

Date:

Astronomy

Jul. 11, 2013 Rise Set
Actual Time 5:23 AM PDT 9:05 PM PDT
Civil Twilight 4:44 AM PDT 9:44 PM PDT
Nautical Twilight 3:51 AM PDT 10:36 PM PDT
Astronomical Twilight 2:36 AM PDT 11:50 PM PDT
Moon 9:05 AM PDT (7/11) 10:28 PM PDT (7/11)
Length of Visible Light 16h 59m
Length of Day
15h 41m
Waxing Crescent, 11% of the Moon is Illuminated
Jul 11
Waxing Crescent
Jul 15
First Quarter
Jul 22
Full
Jul 29
Last Quarter
Aug 6
New

Hourly Weather History & Observations

Time (PDT) Temp. Dew Point Humidity Pressure Visibility Wind Dir Wind Speed Gust Speed Precip Events Conditions
12:48 AM 60.8 °F 48.2 °F 63% 30.01 in 10.0 mi ENE 5.8 mph - N/A   Overcast
12:53 AM 61.0 °F 48.0 °F 62% 30.01 in 10.0 mi Calm Calm - N/A   Overcast
1:53 AM 60.1 °F 46.9 °F 62% 30.01 in 10.0 mi Variable 3.5 mph - N/A   Overcast
2:53 AM 60.1 °F 46.0 °F 60% 30.02 in 10.0 mi ENE 3.5 mph - N/A   Overcast
3:53 AM 60.1 °F 46.0 °F 60% 30.04 in 10.0 mi East 5.8 mph - N/A   Overcast
4:53 AM 57.9 °F 46.9 °F 67% 30.05 in 10.0 mi SE 8.1 mph - N/A   Overcast
5:50 AM 57.2 °F 46.4 °F 67% 30.06 in 10.0 mi SE 11.5 mph - N/A   Overcast
5:53 AM 57.0 °F 46.0 °F 67% 30.06 in 10.0 mi SE 11.5 mph - N/A   Overcast
6:53 AM 57.0 °F 45.0 °F 64% 30.08 in 10.0 mi SSE 10.4 mph - N/A   Overcast
7:53 AM 57.9 °F 45.0 °F 62% 30.08 in 10.0 mi SE 8.1 mph - N/A   Overcast
8:53 AM 59.0 °F 45.0 °F 60% 30.08 in 10.0 mi SE 8.1 mph - N/A   Overcast
9:53 AM 60.1 °F 44.1 °F 55% 30.08 in 10.0 mi SE 3.5 mph - N/A   Overcast
10:53 AM 62.1 °F 45.0 °F 53% 30.09 in 10.0 mi SE 9.2 mph - N/A   Overcast
11:53 AM 64.0 °F 46.0 °F 52% 30.09 in 10.0 mi Calm Calm - N/A   Overcast
12:53 PM 64.9 °F 46.0 °F 50% 30.09 in 10.0 mi Calm Calm - N/A   Mostly Cloudy
1:53 PM 66.9 °F 46.0 °F 47% 30.08 in 10.0 mi Calm Calm - N/A   Mostly Cloudy
2:53 PM 70.0 °F 44.1 °F 39% 30.06 in 10.0 mi Calm Calm - N/A   Scattered Clouds
3:53 PM 70.0 °F 43.0 °F 38% 30.05 in 10.0 mi Variable 3.5 mph - N/A   Scattered Clouds
4:53 PM 71.1 °F 45.0 °F 39% 30.04 in 10.0 mi NW 8.1 mph - N/A   Scattered Clouds
5:53 PM 70.0 °F 46.9 °F 44% 30.02 in 10.0 mi NW 8.1 mph - N/A   Scattered Clouds
6:53 PM 70.0 °F 46.9 °F 44% 30.01 in 10.0 mi Variable 6.9 mph - N/A   Overcast
7:53 PM 66.0 °F 46.9 °F 50% 30.01 in 10.0 mi Variable 5.8 mph - N/A   Scattered Clouds
8:53 PM 63.0 °F 46.9 °F 56% 30.01 in 10.0 mi WNW 4.6 mph - N/A   Mostly Cloudy
9:53 PM 64.9 °F 46.9 °F 52% 30.01 in 10.0 mi Variable 4.6 mph - N/A   Overcast
10:53 PM 63.0 °F 45.0 °F 52% 30.02 in 10.0 mi Variable 4.6 mph - N/A   Overcast
11:53 PM 61.0 °F 46.0 °F 58% 30.02 in 10.0 mi Variable 3.5 mph - N/A   Mostly Cloudy